Weather History for St. Cloud, MN

Change the Weather History Date:

Sunday, February 2, 2014

  Actual Average Record
Temperature  
Mean Temperature -4 °F 13 °F  
Max Temperature 13 °F 23 °F 48 °F (1991)
Min Temperature -21 °F 3 °F -40 °F (1996)
Degree Days  
Heating Degree Days 69 52  
Month to date heating degree days 127 104  
Since 1 July heating degree days 5677 5206  
Cooling Degree Days 0 0  
Month to date cooling degree days 0 0  
Year to date cooling degree days 0 0  
Moisture  
Dew Point -10 °F    
Average Humidity 73    
Maximum Humidity 87    
Minimum Humidity 58    
Precipitation  
Precipitation 0.00 in 0.01 in 0.70 in (1919)
Month to date precipitation T 0.03  
Year to date precipitation 1.34 0.68  
Snow  
Snow 0.00 in 0.30 in 7.60 in (1919)
Month to date snowfall T 0.5  
Since 1 July snowfall 40.8 27.7  
Snow Depth 17.00 in    
Sea Level Pressure  
Sea Level Pressure 30.32 in    
Wind  
Wind Speed 4 mph (South)    
Max Wind Speed 13 mph    
Max Gust Speed 16 mph    
Visibility 10 miles    
Events      
T = Trace of Precipitation, MM = Missing Value Source: NWS Daily Summary

Daily Weather History Graph

Daily Weather History Graph

Search for Another Location

Airport:

Trip Planner

Search our weather history database for the weather conditions in past years. The results will help you decide how hot, cold, wet, or windy it might be!

Date:

Astronomy

Feb. 02, 2014 Rise Set
Actual Time 7:36 AM CST 5:24 PM CST
Civil Twilight 7:04 AM CST 5:55 PM CST
Nautical Twilight 6:29 AM CST 6:31 PM CST
Astronomical Twilight 5:54 AM CST 7:06 PM CST
Moon 8:51 AM CST (2/2) 9:23 PM CST (2/2)
Length of Visible Light 10h 51m
Length of Day
9h 48m
Waxing Crescent, 11% of the Moon is Illuminated
Feb 2
Waxing Crescent
Feb 6
First Quarter
Feb 14
Full
Feb 22
Last Quarter
Mar 1
New

Hourly Weather History & Observations

Time (CST) Temp. Windchill Dew Point Humidity Pressure Visibility Wind Dir Wind Speed Gust Speed Precip Events Conditions
12:53 AM -4.0 °F - -11.0 °F 72% 30.31 in 10.0 mi Calm Calm - N/A   Clear
1:53 AM -8.0 °F -16.9 °F -14.1 °F 75% 30.31 in 10.0 mi WNW 3.5 mph - N/A   Clear
2:53 AM -9.9 °F - -16.1 °F 74% 30.32 in 10.0 mi Calm Calm - N/A   Clear
3:53 AM -15.0 °F - -20.9 °F 75% 30.33 in 10.0 mi Calm Calm - N/A   Clear
4:53 AM -15.0 °F - -18.9 °F 82% 30.34 in 10.0 mi Calm Calm - N/A   Clear
5:53 AM -18.0 °F - -25.1 °F 70% 30.35 in 10.0 mi Calm Calm - N/A   Clear
6:53 AM -20.9 °F - -26.0 °F 77% 30.36 in 10.0 mi Calm Calm - N/A   Clear
7:53 AM -20.9 °F -31.7 °F -27.9 °F 70% 30.36 in 10.0 mi SSE 3.5 mph - N/A   Clear
8:53 AM -11.9 °F - -17.0 °F 78% 30.37 in 10.0 mi Calm Calm - N/A   Overcast
9:53 AM -7.1 °F -18.1 °F -13.0 °F 75% 30.35 in 10.0 mi SSE 4.6 mph - N/A   Partly Cloudy
10:53 AM -2.0 °F -13.9 °F -8.0 °F 76% 30.35 in 10.0 mi South 5.8 mph - N/A   Clear
11:53 AM 6.1 °F -5.6 °F -2.9 °F 67% 30.33 in 10.0 mi South 6.9 mph - N/A   Clear
12:53 PM 10.0 °F -2.9 °F -2.9 °F 56% 30.31 in 10.0 mi SSW 9.2 mph - N/A   Clear
1:53 PM 10.9 °F -1.8 °F -0.0 °F 61% 30.30 in 10.0 mi SSW 9.2 mph - N/A   Clear
2:53 PM 12.9 °F -0.2 °F 1.0 °F 59% 30.30 in 10.0 mi SW 10.4 mph - N/A   Clear
3:53 PM 12.9 °F -1.6 °F 1.0 °F 59% 30.31 in 10.0 mi SW 12.7 mph - N/A   Clear
4:53 PM 9.0 °F -3.2 °F -0.9 °F 64% 30.31 in 10.0 mi SSW 8.1 mph - N/A   Clear
5:53 PM 6.1 °F -0.9 °F -2.0 °F 69% 30.31 in 10.0 mi South 3.5 mph - N/A   Clear
6:53 PM 3.9 °F - -2.0 °F 76% 30.30 in 10.0 mi Calm Calm - N/A   Clear
7:53 PM -2.0 °F -13.9 °F -7.1 °F 79% 30.30 in 10.0 mi SE 5.8 mph - N/A   Clear
8:53 PM 1.9 °F - -2.9 °F 80% 30.27 in 10.0 mi Calm Calm - N/A   Clear
9:53 PM -0.9 °F -8.9 °F -7.1 °F 75% 30.27 in 10.0 mi SE 3.5 mph - N/A   Clear
10:53 PM -7.1 °F -19.9 °F -11.9 °F 79% 30.27 in 10.0 mi SE 5.8 mph - N/A   Clear
11:53 PM -4.0 °F -16.3 °F -8.0 °F 83% 30.25 in 10.0 mi SE 5.8 mph - N/A   Clear